Overview Statistics Trail Chart Weather Telemetry Raw packets
 

This is the latest recevied weather packets stored in our database for station/object K4IR. If no packets are shown the sender has not sent any weather packets the latest 10 day(s).

<< 39 40 41 42 43 44 45 >>
Time Temp. Humidity Pressure Rain* Wind** Luminosity Snow
1788032248 28.33° C 80% 1020.2 hPa 0 mm - 182 W/m² -
1788031644 28.89° C 80% 1020.2 hPa 0 mm - 198 W/m² -
1788031044 28.89° C 77% 1020 hPa 0 mm - 232 W/m² -
1788030444 28.89° C 78% 1020.3 hPa 0 mm - 266 W/m² -
1788029839 28.33° C 77% 1020.3 hPa 0 mm - 306 W/m² -
1788029240 28.89° C 77% 1020.4 hPa 0 mm - 351 W/m² -
1788028634 28.33° C 76% 1020.7 hPa 0 mm - 365 W/m² -
1788028030 28.33° C 80% 1020.9 hPa 0 mm - 272 W/m² -
1788027431 28.33° C 78% 1021.3 hPa 0 mm - 271 W/m² -
1788026831 28.33° C 76% 1021.6 hPa 0 mm - 288 W/m² -
1788026226 28.33° C 77% 1021.7 hPa 0 mm - 325 W/m² -
1788025626 28.89° C 78% 1021.6 hPa 0 mm - 464 W/m² -
1788025026 28.33° C 79% 1022.1 hPa 0 mm - 308 W/m² -
1788024423 28.33° C 82% 1021.9 hPa 0 mm - 398 W/m² -
1788023819 27.78° C 85% 1022 hPa 0 mm - 352 W/m² -
1788023215 27.22° C 85% 1022 hPa 0 mm - 250 W/m² -
1788022611 27.78° C 85% 1022 hPa 0 mm - 193 W/m² -
1788022011 27.22° C 84% 1022.1 hPa 0 mm - 234 W/m² -
1788021410 27.22° C 85% 1022.1 hPa 0 mm - 282 W/m² -
1788020806 27.22° C 84% 1022 hPa 0 mm - 249 W/m² -
1788020203 26.67° C 86% 1021.7 hPa 0 mm - 318 W/m² -
1788019598 26.11° C 89% 1021.7 hPa 0 mm - 268 W/m² -
1788018996 26.67° C 90% 1021.7 hPa 0 mm - 244 W/m² -
1788018390 26.11° C 90% 1021.9 hPa 0 mm - 272 W/m² -
1788017787 25.56° C 93% 1021.9 hPa 0 mm - 266 W/m² -

* Rain latest hour (hover to see other rain measurements)
** Current wind speed in m/s (hover to see current wind gust speed)